Location: Chuathbaluk
(61.5726°N, 159.2454°W)
Time: 03:00:51
(UTC+00:00)

Transit 4A - Pass Details

Date: 02 December 2020
Orbit: 864 x 980 km, 66.8° (Epoch: 26 January)

Event Time Altitude Azimuth Distance (km) Brightness Sun altitude
Rises 16:56:31 0° 171° (S) 3,648 11.4 -15.9°
Reaches altitude 10° 16:59:38 10° 156° (SSE) 2,717 10.9 -15.5°
Maximum altitude 17:04:16 22° 109° (ESE) 2,016 10.7 -15.0°
Drops below altitude 10° 17:08:56 10° 63° (ENE) 2,743 11.0 -14.5°
Sets 17:12:06 0° 48° (NE) 3,692 11.4 -14.1°
